STARLINK-5002 (53922 NORAD) Tracking and Keplerian Element Data

This shows tracking and keplerian element data for the satellite.

Feedback or suggestion? Click here.




ElementValue
Catalog53922
NameSTARLINK-5002
Epoch Orbit945
Epoch Day325.25001157
Epoch Year2022
RAAN329.4871
Inclination53.2128
Eccentricity0.0004242
Argument of Perigee358.734
Mean Anonmoly110.2775
Mean Motion15.73223041
Decay Rate-0.00053152
L11 53922U 22119AN 22325.25001157 -.00053152 00000+0 -37606-3 0 9993
L22 53922 53.2128 329.4871 0004242 358.7340 110.2775 15.73223041 9459



Live tracking and technical data element details for STARLINK-5002 (NORAD 53922). STARLINK-5002 can be tracked NOW for your location showing map with azimuth and elevation plus other details from your city location.







IsCatalogInMostPopularTable: catalog: 53922, numindb: 2
Update: records affected: 1



GetName: 53922 STARLINK-5002

Hit Count: updated at: Fri, 09 Dec 2022 18:39:29 GMT